STARLINK-11396, 62015

Orbit data source: Space-Track

STARLINK-11396, 62015 is a payload satellite owned by SpaceX/Seattle (US) in LEO that was launched on Mon, 18 Nov 2024 UTC via an FALCON 9 launch vehicle from the Air Force Western Test Range (AFWTR). Payloads include a variety of satellites, spacecraft, and rockets equipped with specific instruments for various scientific and technological missions. These include communications satellites like Starlink; space stations such as the ISS; scientific satellites like the Hubble; Earth observation satellites from companies like Planet Labs, Umbra, and HawkEye 360; GPS; miniature CubeSats for education and research; and military/defense satellites.

Not visible in the next 10 days
STARLINK-11396 details
Identifier
62015, 2024-213H
Orbit
LEO
Last TLE update10 hours ago
Origin
Flag of USSpaceX/Seattle (US)
ManufacturerSpaceX/Seattle
MissionOperational spacecraft
Bus & MotorSTARLINK V2M, Unknown motor
Mass730 kg wet, ~700 kg dry
Launch date (UTC)
2024-11-18 (2 weeks ago)
Launch vehicle
FALCON 9
Launch site
Air Force Western Test Range (AFWTR)
Object type
Payload
Rocket body
Debris
Shape & HBRUnknown
Radar Cross SectionLarge (>1 m²)

Expand to show TLE details & history

TLE from 10 hours ago
0 STARLINK-11396
1 62015U 24213H   24337.03119402  .00099210  00000-0  31762-3 0  9998
2 62015  53.1612 166.1080 0000842  51.2141 308.8961 15.90287523  3037
Epoch: 2024-12-02T00:44Z
Definitive object data (Epoch: 2024-12-02T00:44:55.163Z)
Latitude-0.00001°
Longitude83.51726°
Altitude302.048 km
Speed7.728 km/s
True Right ascension11h 04m 25s
True Declination0° 00' 00"
Sunlit
Object was in daylight at TLE epoch
Visualization TLE readout
Latitude1.37027°
Longitude-99.57848°
Altitude302.327 km
Speed7.728 km/s
Apparent Right ascension21h 47m 49s
Apparent Declination-19° 39' 06"
Sunlit
Object is in daylight
Visualization observer readout
Local Sidereal Time08:19:13
Azimuth310.359° NW
Elevation-62.226°
Doppler factor1
Orbital elements
Apogee altitude302.303 km
Perigee altitude301.178 km
Semi-major axis6,679.877 km
Eccentricity0.0000842
Inclination53.1612°
RAAN166.108°
Arg. of periapsis51.2141°
True anomaly308.88859°
Mean anomaly308.8961°
Eccentric anomaly308.89235°
Mean motion3.97549 °/min
BSTAR0.00031762
Orbital period90.55 mins
Loading maneuver chart data...
Loading historical data...
Loading historical data...
Loading historical data...
Loading historical data...
Loading historical data...
Loading historical data...
Loading historical data...

STARLINK-11396 Visibility forecast

Observer location: undefined°, undefined

STARLINK-11396 is not visible in the next 10 days
Span
Click to sort rows by Start time (UTC) header in descending order
Start Az.
Max El. time (UTC)
Max El. Az.
Max El.
End time (UTC)
End Az.
|